Time,TemperatureF,DewpointF,PressureIn,WindDirection,WindDirectionDegrees,WindSpeedMPH,WindSpeedGustMPH,Humidity,HourlyPrecipIn,Conditions,Clouds,dailyrainin,SolarRadiationWatts/m^2,SoftwareType,DateUTC
2013-02-13 00:09:00,40.7,36.5,30.35,WNW,303,2.0,3.0,85,0.00,CLR,,0.00,0.0,WeatherDisplay:10.37,2013-02-13 08:09:00,
2013-02-13 00:19:00,40.7,36.8,30.36,NW,304,3.0,5.0,86,0.00,CLR,,0.00,0.0,WeatherDisplay:10.37,2013-02-13 08:19:00,
2013-02-13 00:29:00,40.9,37.3,30.36,NW,308,2.0,6.0,87,0.00,CLR,,0.00,0.0,WeatherDisplay:10.37,2013-02-13 08:29:00,
2013-02-13 00:39:00,40.9,37.3,30.35,NW,306,2.0,6.0,87,0.00,CLR,,0.00,0.0,WeatherDisplay:10.37,2013-02-13 08:39:00,
2013-02-13 00:49:00,40.9,37.3,30.36,WNW,302,5.0,6.0,87,0.00,CLR,,0.00,0.0,WeatherDisplay:10.37,2013-02-13 08:49:00,
2013-02-13 00:59:00,40.7,37.1,30.36,NW,305,3.0,7.0,87,0.00,CLR,,0.00,0.0,WeatherDisplay:10.37,2013-02-13 08:59:00,
2013-02-13 01:09:00,40.4,36.9,30.35,NW,311,2.0,7.0,87,0.00,CLR,,0.00,0.0,WeatherDisplay:10.37,2013-02-13 09:09:00,
2013-02-13 01:19:00,40.5,36.9,30.35,WNW,291,3.0,5.0,87,0.00,CLR,,0.00,0.0,WeatherDisplay:10.37,2013-02-13 09:19:00,
2013-02-13 01:29:00,40.4,36.8,30.35,WNW,294,3.0,5.0,87,0.00,CLR,,0.00,0.0,WeatherDisplay:10.37,2013-02-13 09:29:00,
2013-02-13 01:39:00,40.2,36.6,30.35,WNW,298,3.0,7.0,87,0.00,CLR,,0.00,0.0,WeatherDisplay:10.37,2013-02-13 09:39:00,
2013-02-13 01:49:00,40.2,36.9,30.35,NW,307,3.0,6.0,88,0.00,CLR,,0.00,0.0,WeatherDisplay:10.37,2013-02-13 09:49:00,
2013-02-13 01:59:00,40.2,36.9,30.35,NW,313,5.0,7.0,88,0.00,CLR,,0.00,0.0,WeatherDisplay:10.37,2013-02-13 09:59:00,
2013-02-13 02:09:00,40.1,36.9,30.35,NW,305,5.0,9.0,88,0.00,CLR,,0.00,0.0,WeatherDisplay:10.37,2013-02-13 10:09:00,
2013-02-13 02:19:00,40.0,36.7,30.35,NW,307,3.0,7.0,88,0.00,CLR,,0.00,0.0,WeatherDisplay:10.37,2013-02-13 10:19:00,
2013-02-13 02:29:00,39.8,36.5,30.34,NW,307,5.0,8.0,88,0.00,CLR,,0.00,0.0,WeatherDisplay:10.37,2013-02-13 10:29:00,
2013-02-13 02:39:00,39.7,36.5,30.34,WNW,301,5.0,8.0,88,0.00,CLR,,0.00,0.0,WeatherDisplay:10.37,2013-02-13 10:39:00,
2013-02-13 02:49:00,39.7,36.4,30.34,NW,305,5.0,8.0,88,0.00,CLR,,0.00,0.0,WeatherDisplay:10.37,2013-02-13 10:49:00,
2013-02-13 02:59:00,39.5,36.2,30.34,WNW,299,3.0,7.0,88,0.00,CLR,,0.00,0.0,WeatherDisplay:10.37,2013-02-13 10:59:00,
2013-02-13 03:09:00,39.3,36.0,30.34,NW,305,1.0,5.0,88,0.00,CLR,,0.00,0.0,WeatherDisplay:10.37,2013-02-13 11:09:00,
2013-02-13 03:19:00,39.2,35.9,30.34,NW,307,0.0,5.0,88,0.00,CLR,,0.00,0.0,WeatherDisplay:10.37,2013-02-13 11:19:00,
2013-02-13 03:29:00,39.0,35.8,30.34,NW,319,3.0,6.0,88,0.00,CLR,,0.00,0.0,WeatherDisplay:10.37,2013-02-13 11:29:00,
2013-02-13 03:39:00,38.9,35.6,30.34,NW,320,3.0,6.0,88,0.00,CLR,,0.00,0.0,WeatherDisplay:10.37,2013-02-13 11:39:00,
2013-02-13 03:49:00,38.8,35.6,30.34,NW,308,2.0,5.0,88,0.00,CLR,,0.00,0.0,WeatherDisplay:10.37,2013-02-13 11:49:00,
2013-02-13 03:59:00,38.7,35.4,30.34,NW,307,3.0,4.0,88,0.00,CLR,,0.00,0.0,WeatherDisplay:10.37,2013-02-13 11:59:00,
2013-02-13 04:09:00,38.6,35.4,30.34,NW,307,2.0,6.0,88,0.00,CLR,,0.00,0.0,WeatherDisplay:10.37,2013-02-13 12:09:00,
2013-02-13 04:19:00,38.6,35.6,30.34,WNW,300,3.0,5.0,89,0.00,CLR,,0.00,0.0,WeatherDisplay:10.37,2013-02-13 12:19:00,
2013-02-13 04:29:00,38.6,35.6,30.34,WNW,302,2.0,5.0,89,0.00,CLR,,0.00,0.0,WeatherDisplay:10.37,2013-02-13 12:29:00,
2013-02-13 04:39:00,38.5,35.5,30.34,WNW,302,2.0,4.0,89,0.00,CLR,,0.00,0.0,WeatherDisplay:10.37,2013-02-13 12:39:00,
2013-02-13 04:49:00,38.3,35.3,30.34,WNW,303,2.0,5.0,89,0.00,CLR,,0.00,0.0,WeatherDisplay:10.37,2013-02-13 12:49:00,
2013-02-13 04:59:00,38.2,35.2,30.34,WNW,303,1.0,4.0,89,0.00,CLR,,0.00,0.0,WeatherDisplay:10.37,2013-02-13 12:59:00,
2013-02-13 05:09:00,38.0,35.0,30.34,WNW,303,1.0,3.0,89,0.00,CLR,,0.00,0.0,WeatherDisplay:10.37,2013-02-13 13:09:00,
2013-02-13 05:19:00,37.8,34.8,30.34,WNW,303,2.0,4.0,89,0.00,CLR,,0.00,0.0,WeatherDisplay:10.37,2013-02-13 13:19:00,
2013-02-13 05:29:00,37.8,34.8,30.34,NW,304,3.0,6.0,89,0.00,CLR,,0.00,0.0,WeatherDisplay:10.37,2013-02-13 13:29:00,
2013-02-13 05:39:00,37.9,34.9,30.33,NW,305,2.0,5.0,89,0.00,CLR,,0.00,0.0,WeatherDisplay:10.37,2013-02-13 13:39:00,
2013-02-13 05:49:00,37.8,34.8,30.33,NW,305,2.0,4.0,89,0.00,CLR,,0.00,0.0,WeatherDisplay:10.37,2013-02-13 13:49:00,
2013-02-13 05:59:00,37.5,34.6,30.34,NW,306,1.0,3.0,89,0.00,CLR,,0.00,0.0,WeatherDisplay:10.37,2013-02-13 13:59:00,
2013-02-13 06:09:00,37.4,34.5,30.33,NW,311,3.0,6.0,89,0.00,CLR,,0.00,0.0,WeatherDisplay:10.37,2013-02-13 14:09:00,
2013-02-13 06:19:00,37.3,34.3,30.34,WNW,303,1.0,4.0,89,0.00,CLR,,0.00,0.0,WeatherDisplay:10.37,2013-02-13 14:19:00,
2013-02-13 06:29:00,37.2,34.5,30.34,WNW,302,2.0,4.0,90,0.00,OVC,,0.00,0.0,WeatherDisplay:10.37,2013-02-13 14:29:00,
2013-02-13 06:39:00,37.1,34.4,30.34,NW,308,0.0,4.0,90,0.00,OVC,,0.00,0.0,WeatherDisplay:10.37,2013-02-13 14:39:00,
2013-02-13 06:49:00,37.1,34.5,30.34,NW,309,0.0,2.0,90,0.00,OVC,,0.00,0.0,WeatherDisplay:10.37,2013-02-13 14:49:00,
2013-02-13 06:59:00,37.1,34.4,30.34,NW,305,3.0,4.0,90,0.00,OVC,,0.00,5.0,WeatherDisplay:10.37,2013-02-13 14:59:00,
2013-02-13 07:09:00,37.0,34.3,30.34,WNW,298,3.0,5.0,90,0.00,SCT,,0.00,11.0,WeatherDisplay:10.37,2013-02-13 15:09:00,
2013-02-13 07:19:00,36.8,34.1,30.35,WNW,300,2.0,5.0,90,0.00,BKN,,0.00,19.0,WeatherDisplay:10.37,2013-02-13 15:19:00,
2013-02-13 07:29:00,36.9,34.2,30.35,WNW,301,3.0,7.0,90,0.00,BKN,,0.00,33.0,WeatherDisplay:10.37,2013-02-13 15:29:00,
2013-02-13 07:39:00,37.1,34.4,30.35,NW,304,2.0,5.0,90,0.00,SCT,,0.00,54.0,WeatherDisplay:10.37,2013-02-13 15:39:00,
2013-02-13 07:49:00,37.5,34.8,30.35,NW,311,2.0,5.0,90,0.00,FEW,,0.00,84.0,WeatherDisplay:10.37,2013-02-13 15:49:00,
2013-02-13 07:59:00,38.1,35.4,30.35,NW,315,2.0,4.0,90,0.00,FEW,,0.00,120.0,WeatherDisplay:10.37,2013-02-13 15:59:00,
2013-02-13 08:09:00,38.8,36.1,30.35,NW,314,0.0,4.0,90,0.00,CLR,,0.00,155.0,WeatherDisplay:10.37,2013-02-13 16:09:00,
2013-02-13 08:19:00,39.4,36.7,30.35,NW,314,0.0,0.0,90,0.00,CLR,,0.00,169.0,WeatherDisplay:10.37,2013-02-13 16:19:00,
2013-02-13 08:29:00,40.0,37.3,30.36,NW,314,0.0,0.0,90,0.00,CLR,,0.00,223.0,WeatherDisplay:10.37,2013-02-13 16:29:00,
2013-02-13 08:39:00,40.7,38.0,30.36,NW,314,0.0,0.0,90,0.00,CLR,,0.00,260.0,WeatherDisplay:10.37,2013-02-13 16:39:00,
2013-02-13 08:49:00,42.0,39.3,30.35,NW,314,0.0,0.0,90,0.00,CLR,,0.00,297.0,WeatherDisplay:10.37,2013-02-13 16:49:00,
2013-02-13 08:59:00,44.2,41.2,30.35,NW,314,0.0,0.0,89,0.00,CLR,,0.00,329.0,WeatherDisplay:10.37,2013-02-13 16:59:00,
2013-02-13 09:09:00,46.0,42.7,30.36,WNW,295,0.0,0.0,88,0.00,CLR,,0.00,360.0,WeatherDisplay:10.37,2013-02-13 17:09:00,
2013-02-13 09:19:00,47.9,44.2,30.36,WSW,240,0.0,0.0,87,0.00,CLR,,0.00,390.0,WeatherDisplay:10.37,2013-02-13 17:19:00,
2013-02-13 09:29:00,49.0,45.0,30.36,SSW,211,0.0,7.0,86,0.00,CLR,,0.00,424.0,WeatherDisplay:10.37,2013-02-13 17:29:00,
2013-02-13 09:39:00,49.5,45.5,30.36,SSW,196,0.0,5.0,86,0.00,CLR,,0.00,450.0,WeatherDisplay:10.37,2013-02-13 17:39:00,
2013-02-13 09:49:00,49.9,45.5,30.36,SSW,210,0.0,6.0,85,0.00,CLR,,0.00,448.0,WeatherDisplay:10.37,2013-02-13 17:49:00,
2013-02-13 09:59:00,50.5,46.2,30.36,SSW,210,0.0,3.0,85,0.00,CLR,,0.00,487.0,WeatherDisplay:10.37,2013-02-13 17:59:00,
2013-02-13 10:09:00,51.3,46.6,30.36,SSW,213,1.0,6.0,84,0.00,CLR,,0.00,515.0,WeatherDisplay:10.37,2013-02-13 18:09:00,
2013-02-13 10:19:00,52.0,47.0,30.35,SSW,209,0.0,4.0,83,0.00,CLR,,0.00,534.0,WeatherDisplay:10.37,2013-02-13 18:19:00,
2013-02-13 10:29:00,52.8,47.1,30.35,SSW,211,2.0,5.0,81,0.00,CLR,,0.00,552.0,WeatherDisplay:10.37,2013-02-13 18:29:00,
2013-02-13 10:39:00,53.4,47.4,30.35,South,190,2.0,5.0,80,0.00,CLR,,0.00,573.0,WeatherDisplay:10.37,2013-02-13 18:39:00,
2013-02-13 10:49:00,54.0,47.6,30.35,South,172,1.0,6.0,79,0.00,CLR,,0.00,592.0,WeatherDisplay:10.37,2013-02-13 18:49:00,
2013-02-13 10:59:00,54.2,47.1,30.34,South,182,2.0,5.0,77,0.00,CLR,,0.00,608.0,WeatherDisplay:10.37,2013-02-13 18:59:00,
2013-02-13 11:09:00,55.2,47.8,30.34,South,184,0.0,6.0,76,0.00,CLR,,0.00,622.0,WeatherDisplay:10.37,2013-02-13 19:09:00,
2013-02-13 11:19:00,55.6,47.5,30.34,SSE,159,3.0,7.0,74,0.00,CLR,,0.00,633.0,WeatherDisplay:10.37,2013-02-13 19:19:00,
2013-02-13 11:29:00,55.9,47.4,30.34,South,169,3.0,7.0,73,0.00,CLR,,0.00,642.0,WeatherDisplay:10.37,2013-02-13 19:29:00,
2013-02-13 11:39:00,55.8,46.9,30.33,SSW,200,3.0,7.0,72,0.00,CLR,,0.00,654.0,WeatherDisplay:10.37,2013-02-13 19:39:00,
2013-02-13 11:49:00,56.4,46.7,30.33,SSE,168,3.0,6.0,70,0.00,CLR,,0.00,659.0,WeatherDisplay:10.37,2013-02-13 19:49:00,
2013-02-13 11:59:00,56.5,46.5,30.33,South,191,0.0,6.0,69,0.00,CLR,,0.00,666.0,WeatherDisplay:10.37,2013-02-13 19:59:00,
2013-02-13 12:09:00,57.5,46.6,30.32,SSW,194,1.0,6.0,67,0.00,CLR,,0.00,668.0,WeatherDisplay:10.37,2013-02-13 20:09:00,
2013-02-13 12:19:00,57.7,46.0,30.31,SSE,162,2.0,8.0,65,0.00,CLR,,0.00,668.0,WeatherDisplay:10.37,2013-02-13 20:19:00,
2013-02-13 12:29:00,58.1,45.6,30.31,SSE,157,1.0,7.0,63,0.00,CLR,,0.00,673.0,WeatherDisplay:10.37,2013-02-13 20:29:00,
2013-02-13 12:39:00,58.4,45.5,30.30,South,183,1.0,6.0,62,0.00,CLR,,0.00,671.0,WeatherDisplay:10.37,2013-02-13 20:39:00,
2013-02-13 12:49:00,59.3,45.4,30.30,SSW,192,0.0,5.0,60,0.00,CLR,,0.00,666.0,WeatherDisplay:10.37,2013-02-13 20:49:00,
2013-02-13 12:59:00,58.8,45.8,30.29,SSE,148,6.0,8.0,62,0.00,CLR,,0.00,661.0,WeatherDisplay:10.37,2013-02-13 20:59:00,
2013-02-13 13:09:00,59.8,45.8,30.28,South,188,2.0,7.0,60,0.00,CLR,,0.00,654.0,WeatherDisplay:10.37,2013-02-13 21:09:00,
2013-02-13 13:19:00,60.4,46.0,30.28,South,178,2.0,7.0,59,0.00,CLR,,0.00,643.0,WeatherDisplay:10.37,2013-02-13 21:19:00,
2013-02-13 13:29:00,61.3,45.4,30.27,South,171,5.0,8.0,56,0.00,CLR,,0.00,635.0,WeatherDisplay:10.37,2013-02-13 21:29:00,
2013-02-13 13:39:00,61.1,45.7,30.27,South,178,5.0,8.0,57,0.00,CLR,,0.00,622.0,WeatherDisplay:10.37,2013-02-13 21:39:00,
2013-02-13 13:49:00,61.3,46.8,30.27,South,189,1.0,7.0,59,0.00,CLR,,0.00,606.0,WeatherDisplay:10.37,2013-02-13 21:49:00,
2013-02-13 13:59:00,61.7,46.8,30.26,South,190,1.0,6.0,58,0.00,CLR,,0.00,592.0,WeatherDisplay:10.37,2013-02-13 21:59:00,
2013-02-13 14:09:00,62.4,47.4,30.26,South,184,0.0,7.0,58,0.00,CLR,,0.00,577.0,WeatherDisplay:10.37,2013-02-13 22:09:00,
2013-02-13 14:19:00,62.2,45.3,30.26,SSW,203,3.0,7.0,54,0.00,CLR,,0.00,559.0,WeatherDisplay:10.37,2013-02-13 22:19:00,
2013-02-13 14:29:00,62.2,43.8,30.25,SSW,196,0.0,3.0,51,0.00,CLR,,0.00,540.0,WeatherDisplay:10.37,2013-02-13 22:29:00,
2013-02-13 14:39:00,62.3,42.9,30.25,SE,145,0.0,5.0,49,0.00,CLR,,0.00,520.0,WeatherDisplay:10.37,2013-02-13 22:39:00,
2013-02-13 14:49:00,62.7,42.2,30.25,SSE,167,1.0,7.0,47,0.00,CLR,,0.00,496.0,WeatherDisplay:10.37,2013-02-13 22:49:00,
2013-02-13 14:59:00,62.7,42.7,30.25,SSE,158,1.0,6.0,48,0.00,CLR,,0.00,475.0,WeatherDisplay:10.37,2013-02-13 22:59:00,
2013-02-13 15:09:00,62.5,42.0,30.25,SSW,197,0.0,7.0,47,0.00,CLR,,0.00,446.0,WeatherDisplay:10.37,2013-02-13 23:09:00,
2013-02-13 15:19:00,62.4,41.9,30.25,South,173,0.0,5.0,47,0.00,CLR,,0.00,418.0,WeatherDisplay:10.37,2013-02-13 23:19:00,
2013-02-13 15:29:00,62.4,41.3,30.24,South,175,0.0,4.0,46,0.00,CLR,,0.00,392.0,WeatherDisplay:10.37,2013-02-13 23:29:00,
2013-02-13 15:39:00,62.6,42.1,30.24,South,185,0.0,4.0,47,0.00,CLR,,0.00,360.0,WeatherDisplay:10.37,2013-02-13 23:39:00,
2013-02-13 15:49:00,62.6,42.1,30.24,SSW,192,1.0,4.0,47,0.00,CLR,,0.00,330.0,WeatherDisplay:10.37,2013-02-13 23:49:00,
2013-02-13 15:59:00,62.5,42.0,30.24,South,171,0.0,4.0,47,0.00,CLR,,0.00,299.0,WeatherDisplay:10.37,2013-02-13 23:59:00,
2013-02-13 16:09:00,62.5,42.0,30.24,South,185,0.0,1.0,47,0.00,CLR,,0.00,267.0,WeatherDisplay:10.37,2013-02-14 00:09:00,
2013-02-13 16:19:00,62.5,42.5,30.23,South,180,0.0,1.0,48,0.00,CLR,,0.00,229.0,WeatherDisplay:10.37,2013-02-14 00:19:00,
2013-02-13 16:29:00,62.1,43.2,30.23,SSE,159,0.0,0.0,50,0.00,CLR,,0.00,186.0,WeatherDisplay:10.37,2013-02-14 00:29:00,
2013-02-13 16:39:00,61.9,43.0,30.23,SSE,164,0.0,0.0,50,0.00,CLR,,0.00,69.0,WeatherDisplay:10.37,2013-02-14 00:39:00,
2013-02-13 16:49:00,61.4,44.1,30.23,SSW,200,0.0,4.0,53,0.00,BKN,,0.00,28.0,WeatherDisplay:10.37,2013-02-14 00:49:00,
2013-02-13 16:59:00,60.7,42.5,30.23,SSW,192,0.0,0.0,51,0.00,BKN,,0.00,30.0,WeatherDisplay:10.37,2013-02-14 00:59:00,
2013-02-13 17:09:00,60.3,43.1,30.23,South,187,0.0,1.0,53,0.00,BKN,,0.00,21.0,WeatherDisplay:10.37,2013-02-14 01:09:00,
2013-02-13 17:19:00,59.8,43.6,30.23,SE,138,0.0,0.0,55,0.00,BKN,,0.00,21.0,WeatherDisplay:10.37,2013-02-14 01:19:00,
2013-02-13 17:29:00,59.2,43.9,30.23,SE,131,0.0,0.0,57,0.00,BKN,,0.00,12.0,WeatherDisplay:10.37,2013-02-14 01:29:00,
2013-02-13 17:39:00,58.6,44.3,30.23,SE,126,0.0,0.0,59,0.00,CLR,,0.00,7.0,WeatherDisplay:10.37,2013-02-14 01:39:00,
2013-02-13 17:49:00,58.1,44.7,30.23,SE,126,0.0,0.0,61,0.00,OVC,,0.00,0.0,WeatherDisplay:10.37,2013-02-14 01:49:00,
2013-02-13 17:59:00,57.2,44.3,30.23,East,100,0.0,1.0,62,0.00,CLR,,0.00,0.0,WeatherDisplay:10.37,2013-02-14 01:59:00,
2013-02-13 18:09:00,56.4,43.9,30.23,ENE,66,0.0,3.0,63,0.00,CLR,,0.00,0.0,WeatherDisplay:10.37,2013-02-14 02:09:00,
2013-02-13 18:19:00,55.8,44.2,30.23,ENE,66,0.0,3.0,65,0.00,CLR,,0.00,0.0,WeatherDisplay:10.37,2013-02-14 02:19:00,
2013-02-13 18:29:00,55.4,44.6,30.23,ENE,66,0.0,0.0,67,0.00,CLR,,0.00,0.0,WeatherDisplay:10.37,2013-02-14 02:29:00,
2013-02-13 18:39:00,55.0,43.8,30.24,North,7,0.0,2.0,66,0.00,CLR,,0.00,0.0,WeatherDisplay:10.37,2013-02-14 02:39:00,
2013-02-13 18:49:00,54.0,42.9,30.24,NW,308,0.0,0.0,66,0.00,CLR,,0.00,0.0,WeatherDisplay:10.37,2013-02-14 02:49:00,
2013-02-13 18:59:00,53.2,42.9,30.24,NW,308,0.0,0.0,68,0.00,CLR,,0.00,0.0,WeatherDisplay:10.37,2013-02-14 02:59:00,
2013-02-13 19:09:00,52.5,42.6,30.24,NW,308,0.0,3.0,69,0.00,CLR,,0.00,0.0,WeatherDisplay:10.37,2013-02-14 03:09:00,
2013-02-13 19:19:00,51.4,41.9,30.24,NW,308,0.0,3.0,70,0.00,CLR,,0.00,0.0,WeatherDisplay:10.37,2013-02-14 03:19:00,
2013-02-13 19:29:00,50.6,41.6,30.24,NW,308,0.0,0.0,71,0.00,CLR,,0.00,0.0,WeatherDisplay:10.37,2013-02-14 03:29:00,
2013-02-13 19:39:00,50.2,41.5,30.24,NW,308,0.0,0.0,72,0.00,CLR,,0.00,0.0,WeatherDisplay:10.37,2013-02-14 03:39:00,
2013-02-13 19:49:00,49.6,41.3,30.24,NW,308,0.0,0.0,73,0.00,CLR,,0.00,0.0,WeatherDisplay:10.37,2013-02-14 03:49:00,
2013-02-13 19:59:00,49.0,41.1,30.25,NW,308,0.0,0.0,74,0.00,CLR,,0.00,0.0,WeatherDisplay:10.37,2013-02-14 03:59:00,
2013-02-13 20:09:00,48.4,40.9,30.24,NW,308,0.0,0.0,75,0.00,CLR,,0.00,0.0,WeatherDisplay:10.37,2013-02-14 04:09:00,
2013-02-13 20:19:00,47.8,40.6,30.24,NW,308,0.0,1.0,76,0.00,CLR,,0.00,0.0,WeatherDisplay:10.37,2013-02-14 04:19:00,
2013-02-13 20:29:00,47.3,40.1,30.24,NW,308,0.0,0.0,76,0.00,CLR,,0.00,0.0,WeatherDisplay:10.37,2013-02-14 04:29:00,
2013-02-13 20:39:00,46.8,40.0,30.25,NW,308,0.0,0.0,77,0.00,CLR,,0.00,0.0,WeatherDisplay:10.37,2013-02-14 04:39:00,
2013-02-13 20:49:00,46.4,39.6,30.25,NW,308,0.0,0.0,77,0.00,CLR,,0.00,0.0,WeatherDisplay:10.37,2013-02-14 04:49:00,
2013-02-13 20:59:00,46.0,39.5,30.25,NW,308,0.0,0.0,78,0.00,CLR,,0.00,0.0,WeatherDisplay:10.37,2013-02-14 04:59:00,
2013-02-13 21:09:00,45.6,39.5,30.25,NW,308,0.0,0.0,79,0.00,CLR,,0.00,0.0,WeatherDisplay:10.37,2013-02-14 05:09:00,
2013-02-13 21:19:00,45.4,39.6,30.25,NW,308,0.0,0.0,80,0.00,CLR,,0.00,0.0,WeatherDisplay:10.37,2013-02-14 05:19:00,
2013-02-13 21:29:00,45.3,39.5,30.25,NW,308,0.0,0.0,80,0.00,CLR,,0.00,0.0,WeatherDisplay:10.37,2013-02-14 05:29:00,
2013-02-13 21:39:00,45.1,39.3,30.25,NW,308,0.0,0.0,80,0.00,CLR,,0.00,0.0,WeatherDisplay:10.37,2013-02-14 05:39:00,
2013-02-13 21:49:00,44.9,39.4,30.25,NW,307,0.0,0.0,81,0.00,CLR,,0.00,0.0,WeatherDisplay:10.37,2013-02-14 05:49:00,
2013-02-13 21:59:00,44.6,39.4,30.25,NW,308,0.0,1.0,82,0.00,CLR,,0.00,0.0,WeatherDisplay:10.37,2013-02-14 05:59:00,
2013-02-13 22:09:00,44.5,39.7,30.25,NW,308,0.0,2.0,83,0.00,CLR,,0.00,0.0,WeatherDisplay:10.37,2013-02-14 06:09:00,
2013-02-13 22:19:00,44.6,40.1,30.25,NW,308,0.0,1.0,84,0.00,CLR,,0.00,0.0,WeatherDisplay:10.37,2013-02-14 06:19:00,
2013-02-13 22:29:00,44.5,40.0,30.25,NW,308,2.0,3.0,84,0.00,CLR,,0.00,0.0,WeatherDisplay:10.37,2013-02-14 06:29:00,
2013-02-13 22:39:00,43.9,39.4,30.25,NW,308,0.0,3.0,84,0.00,CLR,,0.00,0.0,WeatherDisplay:10.37,2013-02-14 06:39:00,
2013-02-13 22:49:00,43.4,38.9,30.25,NW,307,0.0,1.0,84,0.00,CLR,,0.00,0.0,WeatherDisplay:10.37,2013-02-14 06:49:00,
2013-02-13 22:59:00,42.9,38.4,30.25,NW,308,2.0,3.0,84,0.00,CLR,,0.00,0.0,WeatherDisplay:10.37,2013-02-14 06:59:00,
2013-02-13 23:09:00,42.4,37.9,30.25,NW,308,1.0,3.0,84,0.00,CLR,,0.00,0.0,WeatherDisplay:10.37,2013-02-14 07:09:00,
2013-02-13 23:19:00,42.2,38.0,30.25,NW,308,0.0,3.0,85,0.00,CLR,,0.00,0.0,WeatherDisplay:10.37,2013-02-14 07:19:00,
2013-02-13 23:29:00,42.2,38.3,30.25,NW,308,0.0,1.0,86,0.00,CLR,,0.00,0.0,WeatherDisplay:10.37,2013-02-14 07:29:00,
2013-02-13 23:39:00,41.8,38.0,30.25,NW,308,0.0,0.0,86,0.00,CLR,,0.00,0.0,WeatherDisplay:10.37,2013-02-14 07:39:00,
2013-02-13 23:49:00,41.7,37.8,30.24,NW,308,1.0,4.0,86,0.00,CLR,,0.00,0.0,WeatherDisplay:10.37,2013-02-14 07:49:00,
2013-02-13 23:59:00,41.4,37.5,30.24,NW,308,0.0,1.0,86,0.00,CLR,,0.00,0.0,WeatherDisplay:10.37,2013-02-14 07:59:00,